| time (UTC) | temp C | wind direction | speed KPH | gust KPH | rain 1hr cm | rain 24hr cm | rain mn cm | humidity % | barometer mb |
| 20260506202203 | 20 | 133 | 4.8 | 4.8 | 0.00 | 0.51 | 0.51 | 77 | 1006.6 |
| 20260506201700 | 20 | 258 | 3.2 | 3.2 | 0.00 | 0.51 | 0.51 | 79 | 1006.9 |
| 20260506201156 | 20 | 161 | 8.0 | 8.0 | 0.00 | 0.51 | 0.51 | 77 | 1006.7 |
| 20260506200653 | 19 | 123 | 6.4 | 4.8 | 0.00 | 0.51 | 0.51 | 79 | 1006.9 |
| 20260506200150 | 18 | 139 | 6.4 | 4.8 | 0.00 | 0.51 | 0.51 | 79 | 1006.9 |
| 20260506195647 | 18 | 210 | 8.0 | 11.3 | 0.00 | 0.51 | 0.51 | 81 | 1006.9 |
| 20260506195143 | 18 | 142 | 3.2 | 3.2 | 0.00 | 0.51 | 0.51 | 81 | 1007.2 |
| 20260506194640 | 18 | 144 | 14.5 | 16.1 | 0.00 | 0.51 | 0.51 | 80 | 1007.0 |
| 20260506194136 | 18 | 128 | 4.8 | 8.0 | 0.00 | 0.51 | 0.51 | 81 | 1007.0 |
| 20260506193634 | 18 | 243 | 4.8 | 4.8 | 0.00 | 0.51 | 0.51 | 80 | 1007.1 |
| 20260506193131 | 18 | 160 | 11.3 | 14.5 | 0.00 | 0.51 | 0.51 | 81 | 1007.2 |
| 20260506192628 | 18 | 142 | 6.4 | 8.0 | 0.00 | 0.51 | 0.51 | 82 | 1007.1 |
| 20260506192124 | 18 | 253 | 6.4 | 8.0 | 0.00 | 0.51 | 0.51 | 83 | 1007.3 |
| 20260506191621 | 17 | 122 | 9.7 | 11.3 | 0.00 | 0.51 | 0.51 | 84 | 1007.4 |
| 20260506191117 | 17 | 256 | 3.2 | 8.0 | 0.00 | 0.51 | 0.51 | 84 | 1007.3 |
| 20260506190615 | 17 | 192 | 16.1 | 22.5 | 0.00 | 0.51 | 0.51 | 85 | 1007.6 |
| 20260506190111 | 17 | 148 | 6.4 | 8.0 | 0.00 | 0.51 | 0.51 | 85 | 1007.5 |
| 20260506185608 | 17 | 166 | 6.4 | 4.8 | 0.00 | 0.51 | 0.51 | 86 | 1007.5 |
| 20260506185104 | 17 | 145 | 3.2 | 3.2 | 0.00 | 0.51 | 0.51 | 87 | 1007.6 |
| 20260506184602 | 17 | 195 | 6.4 | 8.0 | 0.00 | 0.51 | 0.51 | 88 | 1007.9 |
| 20260506184059 | 16 | 167 | 3.2 | 4.8 | 0.00 | 0.51 | 0.51 | 88 | 1007.6 |
| 20260506183555 | 16 | 261 | 3.2 | 8.0 | 0.00 | 0.51 | 0.51 | 89 | 1007.7 |
| 20260506183052 | 16 | 176 | 8.0 | 11.3 | 0.00 | 0.51 | 0.51 | 90 | 1007.9 |
| 20260506182549 | 16 | 207 | 8.0 | 8.0 | 0.00 | 0.51 | 0.51 | 90 | 1008.0 |
| 20260506182046 | 16 | 209 | 1.6 | 3.2 | 0.00 | 0.51 | 0.51 | 89 | 1008.2 |
| 20260506181544 | 16 | 209 | 3.2 | 4.8 | 0.00 | 0.51 | 0.51 | 88 | 1007.9 |
| 20260506181041 | 17 | 130 | 4.8 | 4.8 | 0.00 | 0.51 | 0.51 | 87 | 1008.0 |
| 20260506180537 | 17 | 42 | 3.2 | 4.8 | 0.00 | 0.51 | 0.51 | 87 | 1008.1 |
| 20260506180034 | 17 | 120 | 8.0 | 8.0 | 0.00 | 0.51 | 0.51 | 86 | 1007.9 |
| 20260506175531 | 17 | 157 | 4.8 | 8.0 | 0.00 | 0.51 | 0.51 | 85 | 1007.8 |
| 20260506175027 | 17 | 132 | 9.7 | 11.3 | 0.00 | 0.51 | 0.51 | 85 | 1007.9 |
| 20260506174526 | 17 | 284 | 4.8 | 8.0 | 0.00 | 0.51 | 0.51 | 85 | 1007.7 |
| 20260506174021 | 17 | 201 | 4.8 | 8.0 | 0.00 | 0.51 | 0.51 | 86 | 1007.8 |
| 20260506173519 | 17 | 131 | 11.3 | 19.3 | 0.00 | 0.51 | 0.51 | 85 | 1007.9 |
| 20260506173016 | 17 | 126 | 11.3 | 14.5 | 0.00 | 0.51 | 0.51 | 85 | 1007.8 |
| 20260506172514 | 17 | 89 | 6.4 | 8.0 | 0.00 | 0.51 | 0.51 | 85 | 1008.0 |
| 20260506172009 | 17 | 148 | 6.4 | 11.3 | 0.00 | 0.51 | 0.51 | 87 | 1007.9 |
| 20260506171507 | 16 | 148 | 16.1 | 16.1 | 0.00 | 0.51 | 0.51 | 87 | 1008.0 |
| 20260506171005 | 16 | 136 | 14.5 | 19.3 | 0.00 | 0.51 | 0.51 | 87 | 1008.3 |
| 20260506170502 | 16 | 143 | 6.4 | 11.3 | 0.00 | 0.51 | 0.51 | 87 | 1008.3 |
| 20260506165959 | 16 | 206 | 9.7 | 11.3 | 0.00 | 0.51 | 0.51 | 88 | 1008.2 |
| 20260506165458 | 16 | 142 | 9.7 | 11.3 | 0.00 | 0.51 | 0.51 | 88 | 1008.2 |
| 20260506164948 | 16 | 165 | 4.8 | 8.0 | 0.00 | 0.51 | 0.51 | 89 | 1008.3 |
| 20260506164445 | 16 | 137 | 6.4 | 8.0 | 0.00 | 0.51 | 0.51 | 88 | 1008.2 |
| 20260506163943 | 16 | 179 | 4.8 | 4.8 | 0.00 | 0.51 | 0.51 | 89 | 1008.0 |
| 20260506163438 | 16 | 245 | 6.4 | 8.0 | 0.18 | 0.51 | 0.51 | 90 | 1008.1 |
| 20260506162932 | 16 | 130 | 1.6 | 3.2 | 0.18 | 0.51 | 0.51 | 90 | 1008.1 |
| 20260506162430 | 16 | 148 | 3.2 | 3.2 | 0.00 | 0.48 | 0.48 | 90 | 1008.0 |
| 20260506161922 | 16 | 247 | 3.2 | 3.2 | 0.13 | 0.48 | 0.48 | 92 | 1007.9 |
| 20260506161420 | 16 | 110 | 4.8 | 4.8 | 0.13 | 0.48 | 0.48 | 91 | 1008.1 |
| 20260506160917 | 16 | 209 | 6.4 | 11.3 | 0.00 | 0.46 | 0.46 | 91 | 1008.4 |
| 20260506160414 | 16 | 110 | 3.2 | 3.2 | 0.18 | 0.46 | 0.46 | 91 | 1009.0 |
| 20260506155911 | 16 | 187 | 6.4 | 11.3 | 0.30 | 0.46 | 0.46 | 91 | 1009.2 |
| 20260506155409 | 16 | 72 | 3.2 | 4.8 | 0.30 | 0.43 | 0.43 | 91 | 1009.3 |
| 20260506153531 | 16 | 104 | 4.8 | 4.8 | 0.30 | 0.36 | 0.36 | 90 | 1009.4 |
| 20260506153028 | 16 | 98 | 3.2 | 3.2 | 0.30 | 0.33 | 0.33 | 90 | 1009.3 |
| 20260506152525 | 16 | 59 | 3.2 | 3.2 | 0.30 | 0.30 | 0.30 | 90 | 1009.5 |
| 20260506152023 | 16 | 127 | 3.2 | 4.8 | 0.48 | 0.28 | 0.28 | 89 | 1009.5 |
| 20260506151520 | 16 | 75 | 1.6 | 3.2 | 0.48 | 0.25 | 0.25 | 89 | 1009.2 |
| 20260506151018 | 16 | 71 | 1.6 | 3.2 | 0.30 | 0.20 | 0.20 | 88 | 1009.4 |
| 20260506150514 | 16 | 127 | 3.2 | 3.2 | 0.18 | 0.18 | 0.18 | 88 | 1009.3 |
| 20260506150011 | 16 | 46 | 3.2 | 3.2 | 0.13 | 0.15 | 0.15 | 88 | 1009.5 |
| 20260506145508 | 16 | 97 | 3.2 | 4.8 | 0.13 | 0.15 | 0.15 | 87 | 1009.1 |
| 20260506145005 | 16 | 175 | 1.6 | 3.2 | 0.18 | 0.13 | 0.13 | 87 | 1009.5 |
| 20260506144502 | 16 | 23 | 3.2 | 4.8 | 0.18 | 0.13 | 0.13 | 87 | 1009.3 |
| 20260506143959 | 16 | 53 | 0.0 | 0.0 | 0.30 | 0.13 | 0.13 | 86 | 1009.3 |
| 20260506143456 | 16 | 123 | 3.2 | 3.2 | 0.30 | 0.10 | 0.10 | 85 | 1009.3 |
| 20260506142955 | 17 | 52 | 0.0 | 0.0 | 0.30 | 0.08 | 0.08 | 84 | 1009.4 |
| 20260506142452 | 17 | 230 | 1.6 | 3.2 | 0.30 | 0.05 | 0.05 | 83 | 1009.4 |
| 20260506141950 | 17 | 261 | 4.8 | 4.8 | 0.18 | 0.03 | 0.03 | 80 | 1009.3 |
| 20260506141448 | 17 | 133 | 6.4 | 8.0 | 0.00 | 0.00 | 0.00 | 78 | 1009.4 |
| 20260506140946 | 17 | 271 | 6.4 | 8.0 | 0.00 | 0.00 | 0.00 | 77 | 1009.4 |
| 20260506140443 | 18 | 188 | 8.0 | 11.3 | 0.00 | 0.00 | 0.00 | 77 | 1009.4 |
| 20260506135939 | 18 | 105 | 8.0 | 11.3 | 0.00 | 0.00 | 0.00 | 75 | 1009.4 |
| 20260506135437 | 18 | 159 | 6.4 | 8.0 | 0.00 | 0.00 | 0.00 | 74 | 1009.3 |
| 20260506134933 | 18 | 121 | 8.0 | 8.0 | 0.00 | 0.00 | 0.00 | 72 | 1009.1 |
| 20260506134429 | 19 | 125 | 4.8 | 8.0 | 0.00 | 0.00 | 0.00 | 73 | 1009.2 |
| 20260506133926 | 19 | 256 | 4.8 | 11.3 | 0.00 | 0.00 | 0.00 | 72 | 1008.9 |
| 20260506133423 | 18 | 143 | 3.2 | 3.2 | 0.00 | 0.00 | 0.00 | 72 | 1009.1 |
| 20260506132920 | 18 | 146 | 4.8 | 4.8 | 0.00 | 0.00 | 0.00 | 72 | 1009.2 |
| 20260506132417 | 18 | 253 | 8.0 | 11.3 | 0.00 | 0.00 | 0.00 | 72 | 1009.4 |
| 20260506131915 | 18 | 97 | 4.8 | 4.8 | 0.00 | 0.00 | 0.00 | 73 | 1009.1 |
| 20260506131411 | 18 | 150 | 1.6 | 3.2 | 0.00 | 0.00 | 0.00 | 73 | 1009.3 |
| 20260506130908 | 18 | 157 | 4.8 | 4.8 | 0.00 | 0.00 | 0.00 | 72 | 1009.3 |
| 20260506130404 | 18 | 241 | 8.0 | 8.0 | 0.00 | 0.00 | 0.00 | 71 | 1009.3 |
| 20260506125903 | 18 | 170 | 9.7 | 8.0 | 0.00 | 0.00 | 0.00 | 70 | 1009.3 |
| 20260506125401 | 19 | 221 | 6.4 | 8.0 | 0.00 | 0.00 | 0.00 | 69 | 1009.4 |
| 20260506124859 | 19 | 163 | 6.4 | 11.3 | 0.00 | 0.00 | 0.00 | 69 | 1009.7 |
| 20260506124355 | 19 | 203 | 3.2 | 4.8 | 0.00 | 0.00 | 0.00 | 69 | 1009.4 |
| 20260506123853 | 19 | 176 | 11.3 | 14.5 | 0.00 | 0.00 | 0.00 | 68 | 1009.2 |
| 20260506123351 | 19 | 95 | 4.8 | 8.0 | 0.00 | 0.00 | 0.00 | 68 | 1009.4 |
| 20260506122848 | 19 | 235 | 27.4 | 33.8 | 0.00 | 0.00 | 0.00 | 67 | 1009.4 |
| 20260506122345 | 19 | 142 | 12.9 | 22.5 | 0.00 | 0.00 | 0.00 | 69 | 1009.2 |
| 20260506121843 | 19 | 235 | 11.3 | 14.5 | 0.00 | 0.00 | 0.00 | 68 | 1009.2 |
| 20260506121340 | 19 | 137 | 8.0 | 11.3 | 0.00 | 0.00 | 0.00 | 68 | 1009.2 |
| 20260506120837 | 19 | 119 | 3.2 | 4.8 | 0.00 | 0.00 | 0.00 | 68 | 1008.8 |
| 20260506120335 | 19 | 112 | 8.0 | 11.3 | 0.00 | 0.00 | 0.00 | 68 | 1009.1 |
| 20260506115832 | 19 | 223 | 3.2 | 4.8 | 0.00 | 0.00 | 0.00 | 69 | 1008.8 |
| 20260506115330 | 18 | 173 | 9.7 | 16.1 | 0.00 | 0.00 | 0.00 | 68 | 1008.7 |
| 20260506114828 | 18 | 197 | 4.8 | 4.8 | 0.00 | 0.00 | 0.00 | 69 | 1008.8 |
| 20260506114325 | 18 | 188 | 8.0 | 8.0 | 0.00 | 0.00 | 0.00 | 69 | 1008.6 |
| 20260506113824 | 18 | 195 | 9.7 | 14.5 | 0.00 | 0.00 | 0.00 | 69 | 1008.8 |
| 20260506113321 | 18 | 139 | 17.7 | 22.5 | 0.00 | 0.00 | 0.00 | 69 | 1008.7 |
| 20260506112817 | 18 | 161 | 14.5 | 22.5 | 0.00 | 0.00 | 0.00 | 69 | 1008.8 |
| 20260506112315 | 18 | 176 | 9.7 | 14.5 | 0.00 | 0.00 | 0.00 | 69 | 1008.6 |
| 20260506111812 | 18 | 144 | 3.2 | 4.8 | 0.00 | 0.00 | 0.00 | 69 | 1008.6 |
| 20260506111310 | 18 | 160 | 11.3 | 11.3 | 0.00 | 0.00 | 0.00 | 68 | 1008.7 |
| 20260506110807 | 18 | 159 | 8.0 | 14.5 | 0.00 | 0.00 | 0.00 | 68 | 1008.7 |
| 20260506110304 | 18 | 119 | 11.3 | 16.1 | 0.00 | 0.00 | 0.00 | 69 | 1008.9 |
| 20260506105801 | 18 | 135 | 8.0 | 14.5 | 0.00 | 0.00 | 0.00 | 68 | 1008.6 |
| 20260506105257 | 18 | 122 | 6.4 | 8.0 | 0.00 | 0.00 | 0.00 | 68 | 1008.4 |
| 20260506104755 | 18 | 150 | 3.2 | 3.2 | 0.00 | 0.00 | 0.00 | 68 | 1008.5 |
| 20260506104253 | 18 | 160 | 16.1 | 24.1 | 0.00 | 0.00 | 0.00 | 68 | 1008.5 |
| 20260506103750 | 18 | 136 | 4.8 | 8.0 | 0.00 | 0.00 | 0.00 | 68 | 1008.6 |
| 20260506103247 | 18 | 106 | 6.4 | 8.0 | 0.00 | 0.00 | 0.00 | 67 | 1008.6 |
| 20260506102745 | 19 | 116 | 1.6 | 3.2 | 0.00 | 0.00 | 0.00 | 67 | 1008.4 |
| 20260506102242 | 19 | 144 | 8.0 | 11.3 | 0.00 | 0.00 | 0.00 | 67 | 1008.5 |
| 20260506101739 | 19 | 129 | 6.4 | 11.3 | 0.00 | 0.00 | 0.00 | 67 | 1008.5 |
| 20260506101236 | 19 | 148 | 11.3 | 14.5 | 0.00 | 0.00 | 0.00 | 66 | 1008.4 |
| 20260506100734 | 19 | 154 | 6.4 | 8.0 | 0.00 | 0.00 | 0.00 | 66 | 1008.3 |
| 20260506100231 | 19 | 199 | 9.7 | 11.3 | 0.00 | 0.00 | 0.00 | 66 | 1008.5 |
| 20260506095730 | 19 | 273 | 6.4 | 11.3 | 0.00 | 0.00 | 0.00 | 66 | 1008.4 |
| 20260506095226 | 19 | 110 | 3.2 | 3.2 | 0.00 | 0.00 | 0.00 | 66 | 1008.7 |
| 20260506094723 | 19 | 136 | 9.7 | 11.3 | 0.00 | 0.00 | 0.00 | 66 | 1008.5 |
| 20260506094221 | 19 | 130 | 1.6 | 3.2 | 0.00 | 0.00 | 0.00 | 66 | 1008.6 |
| 20260506093720 | 19 | 152 | 4.8 | 8.0 | 0.00 | 0.00 | 0.00 | 66 | 1008.5 |
| 20260506093216 | 19 | 155 | 4.8 | 4.8 | 0.00 | 0.00 | 0.00 | 66 | 1008.3 |
| 20260506092714 | 19 | 213 | 8.0 | 11.3 | 0.00 | 0.00 | 0.00 | 66 | 1008.3 |
| 20260506092212 | 19 | 142 | 4.8 | 4.8 | 0.00 | 0.00 | 0.00 | 66 | 1008.4 |
| 20260506091709 | 19 | 137 | 8.0 | 11.3 | 0.00 | 0.00 | 0.00 | 66 | 1008.4 |
| 20260506091206 | 19 | 55 | 8.0 | 14.5 | 0.00 | 0.00 | 0.00 | 66 | 1008.3 |
| 20260506090704 | 19 | 150 | 6.4 | 14.5 | 0.00 | 0.00 | 0.00 | 66 | 1008.5 |
| 20260506090200 | 19 | 115 | 9.7 | 8.0 | 0.00 | 0.00 | 0.00 | 66 | 1008.5 |
| 20260506085657 | 19 | 119 | 3.2 | 4.8 | 0.00 | 0.00 | 0.00 | 66 | 1008.5 |
| 20260506085153 | 19 | 194 | 9.7 | 11.3 | 0.00 | 0.00 | 0.00 | 67 | 1008.5 |
| 20260506084650 | 19 | 100 | 6.4 | 4.8 | 0.00 | 0.00 | 0.00 | 66 | 1008.8 |
| 20260506084147 | 19 | 199 | 8.0 | 11.3 | 0.00 | 0.00 | 0.00 | 66 | 1008.5 |
| 20260506083644 | 20 | 153 | 6.4 | 8.0 | 0.00 | 0.00 | 0.00 | 66 | 1008.5 |
| 20260506083141 | 19 | 134 | 3.2 | 4.8 | 0.00 | 0.00 | 0.00 | 66 | 1008.5 |
| 20260506082639 | 20 | 124 | 4.8 | 8.0 | 0.00 | 0.00 | 0.00 | 66 | 1008.6 |
| 20260506082134 | 20 | 158 | 6.4 | 8.0 | 0.00 | 0.00 | 0.00 | 66 | 1008.5 |
| 20260506081632 | 20 | 172 | 11.3 | 16.1 | 0.00 | 0.00 | 0.00 | 66 | 1008.4 |
| 20260506081130 | 20 | 137 | 11.3 | 16.1 | 0.00 | 0.00 | 0.00 | 66 | 1008.7 |
| 20260506080627 | 20 | 152 | 8.0 | 8.0 | 0.00 | 0.00 | 0.00 | 65 | 1008.6 |
| 20260506080124 | 20 | 77 | 9.7 | 14.5 | 0.00 | 0.00 | 0.00 | 65 | 1008.6 |
| 20260506073108 | 20 | 107 | 8.0 | 11.3 | 0.00 | 0.00 | 0.00 | 64 | 1008.7 |
| 20260506072604 | 20 | 112 | 6.4 | 8.0 | 0.00 | 0.00 | 0.00 | 63 | 1008.8 |
| 20260506072102 | 20 | 137 | 6.4 | 8.0 | 0.00 | 0.00 | 0.00 | 63 | 1008.9 |
| 20260506071600 | 20 | 173 | 11.3 | 14.5 | 0.00 | 0.00 | 0.00 | 63 | 1008.8 |
| 20260506071057 | 20 | 156 | 4.8 | 4.8 | 0.00 | 0.00 | 0.00 | 63 | 1008.8 |
| 20260506070554 | 20 | 135 | 6.4 | 8.0 | 0.00 | 0.00 | 0.00 | 63 | 1008.8 |
| 20260506062028 | 20 | 323 | 3.2 | 4.8 | 0.00 | 0.00 | 0.00 | 60 | 1009.3 |
| 20260506061529 | 20 | 159 | 6.4 | 4.8 | 0.00 | 0.00 | 0.00 | 60 | 1009.5 |
| 20260506061027 | 20 | 165 | 9.7 | 11.3 | 0.00 | 0.00 | 0.00 | 60 | 1009.4 |
| 20260506060525 | 20 | 153 | 3.2 | 3.2 | 0.00 | 0.00 | 0.00 | 60 | 1009.4 |
| 20260506050954 | 20 | 106 | 3.2 | 4.8 | 0.00 | 0.00 | 0.00 | 58 | 1009.9 |
| 20260506050452 | 20 | 104 | 3.2 | 3.2 | 0.00 | 0.00 | 0.00 | 58 | 1009.9 |
| 20260506044942 | 20 | 38 | 3.2 | 3.2 | 0.00 | 0.00 | 0.00 | 58 | 1009.9 |
| 20260506044440 | 20 | 89 | 3.2 | 3.2 | 0.00 | 0.00 | 0.00 | 58 | 1010.0 |
| 20260506043936 | 20 | 113 | 3.2 | 4.8 | 0.00 | 0.00 | 0.00 | 57 | 1009.9 |
| 20260506043434 | 20 | 114 | 1.6 | 3.2 | 0.00 | 0.00 | 0.00 | 57 | 1010.0 |
| 20260506042932 | 20 | 98 | 1.6 | 3.2 | 0.00 | 0.00 | 0.00 | 57 | 1010.0 |
| 20260506042431 | 20 | 97 | 4.8 | 4.8 | 0.00 | 0.00 | 0.00 | 57 | 1009.8 |
| 20260506041929 | 20 | 132 | 3.2 | 3.2 | 0.00 | 0.00 | 0.00 | 57 | 1010.1 |
| 20260506041426 | 20 | 132 | 3.2 | 3.2 | 0.00 | 0.00 | 0.00 | 57 | 1009.9 |
| 20260506040923 | 20 | 132 | 3.2 | 3.2 | 0.00 | 0.00 | 0.00 | 56 | 1009.9 |
| 20260506040421 | 20 | 134 | 4.8 | 4.8 | 0.00 | 0.00 | 0.00 | 56 | 1010.0 |
| 20260506035916 | 20 | 133 | 1.6 | 3.2 | 0.00 | 0.00 | 0.00 | 55 | 1010.0 |
| 20260506035415 | 20 | 133 | 3.2 | 3.2 | 0.00 | 0.00 | 0.00 | 55 | 1009.9 |
| 20260506034911 | 20 | 136 | 3.2 | 3.2 | 0.00 | 0.00 | 0.00 | 55 | 1009.8 |
| 20260506034408 | 20 | 105 | 3.2 | 3.2 | 0.00 | 0.00 | 0.00 | 54 | 1009.8 |
| 20260506033905 | 20 | 100 | 4.8 | 8.0 | 0.00 | 0.00 | 0.00 | 53 | 1009.9 |
| 20260506033402 | 20 | 71 | 3.2 | 4.8 | 0.00 | 0.00 | 0.00 | 53 | 1009.8 |
| 20260506032859 | 21 | 72 | 3.2 | 3.2 | 0.00 | 0.00 | 0.00 | 52 | 1009.8 |
| 20260506032355 | 21 | 116 | 3.2 | 3.2 | 0.00 | 0.00 | 0.00 | 51 | 1009.6 |
| 20260506031852 | 21 | 82 | 3.2 | 3.2 | 0.00 | 0.00 | 0.00 | 51 | 1009.6 |
| 20260506031350 | 21 | 94 | 8.0 | 11.3 | 0.00 | 0.00 | 0.00 | 50 | 1009.8 |
| 20260506030848 | 21 | 160 | 6.4 | 4.8 | 0.00 | 0.00 | 0.00 | 51 | 1009.6 |
| 20260506030346 | 21 | 178 | 3.2 | 3.2 | 0.00 | 0.00 | 0.00 | 51 | 1009.7 |
| 20260506025842 | 21 | 108 | 3.2 | 4.8 | 0.00 | 0.00 | 0.00 | 50 | 1009.7 |
| 20260506025338 | 21 | 116 | 1.6 | 3.2 | 0.00 | 0.00 | 0.00 | 49 | 1009.7 |
| 20260506024835 | 21 | 108 | 4.8 | 4.8 | 0.00 | 0.00 | 0.00 | 49 | 1009.5 |
| 20260506024332 | 21 | 145 | 1.6 | 4.8 | 0.00 | 0.00 | 0.00 | 48 | 1009.5 |
| 20260506023828 | 21 | 134 | 4.8 | 4.8 | 0.00 | 0.00 | 0.00 | 47 | 1009.7 |
| 20260506023325 | 21 | 143 | 3.2 | 3.2 | 0.00 | 0.00 | 0.00 | 48 | 1009.8 |
| 20260506022822 | 21 | 134 | 3.2 | 4.8 | 0.00 | 0.00 | 0.00 | 47 | 1009.8 |
| 20260506022320 | 22 | 173 | 3.2 | 3.2 | 0.00 | 0.00 | 0.00 | 46 | 1009.8 |
| 20260506021818 | 22 | 193 | 3.2 | 4.8 | 0.00 | 0.00 | 0.00 | 46 | 1009.6 |
| 20260506021314 | 22 | 137 | 3.2 | 4.8 | 0.00 | 0.00 | 0.00 | 46 | 1009.7 |
| 20260506020811 | 22 | 80 | 3.2 | 4.8 | 0.00 | 0.00 | 0.00 | 45 | 1009.8 |
| 20260506020309 | 22 | 107 | 3.2 | 4.8 | 0.00 | 0.00 | 0.00 | 44 | 1009.7 |
| 20260506015807 | 22 | 83 | 3.2 | 3.2 | 0.00 | 0.00 | 0.00 | 43 | 1009.7 |
| 20260506015306 | 22 | 120 | 3.2 | 3.2 | 0.00 | 0.00 | 0.00 | 43 | 1009.5 |
| 20260506014800 | 22 | 105 | 4.8 | 4.8 | 0.00 | 0.00 | 0.00 | 43 | 1009.6 |
| 20260506014257 | 22 | 149 | 6.4 | 8.0 | 0.00 | 0.00 | 0.00 | 42 | 1009.6 |
| 20260506013754 | 22 | 94 | 1.6 | 3.2 | 0.00 | 0.00 | 0.00 | 42 | 1009.5 |
| 20260506013251 | 23 | 132 | 4.8 | 4.8 | 0.00 | 0.00 | 0.00 | 42 | 1009.5 |
| 20260506012748 | 23 | 127 | 3.2 | 4.8 | 0.00 | 0.00 | 0.00 | 42 | 1009.4 |
| 20260506012245 | 23 | 153 | 6.4 | 4.8 | 0.00 | 0.00 | 0.00 | 41 | 1009.4 |
| 20260506011742 | 23 | 137 | 6.4 | 8.0 | 0.00 | 0.00 | 0.00 | 41 | 1009.4 |
| 20260506011238 | 23 | 149 | 4.8 | 4.8 | 0.00 | 0.00 | 0.00 | 41 | 1009.3 |
| 20260506010737 | 23 | 138 | 9.7 | 16.1 | 0.00 | 0.00 | 0.00 | 40 | 1009.0 |
| 20260506010233 | 23 | 129 | 6.4 | 8.0 | 0.00 | 0.00 | 0.00 | 40 | 1009.1 |
| 20260506005731 | 23 | 88 | 1.6 | 3.2 | 0.00 | 0.00 | 0.00 | 40 | 1009.0 |
| 20260506005228 | 23 | 96 | 6.4 | 11.3 | 0.00 | 0.00 | 0.00 | 40 | 1009.2 |
| 20260506004723 | 24 | 169 | 6.4 | 4.8 | 0.00 | 0.00 | 0.00 | 39 | 1008.8 |
| 20260506004221 | 24 | 95 | 4.8 | 4.8 | 0.00 | 0.00 | 0.00 | 39 | 1009.0 |
| 20260506003717 | 23 | 144 | 11.3 | 14.5 | 0.00 | 0.00 | 0.00 | 38 | 1008.9 |
| 20260506003213 | 23 | 120 | 4.8 | 4.8 | 0.00 | 0.00 | 0.00 | 38 | 1008.9 |
| 20260506002710 | 24 | 154 | 3.2 | 4.8 | 0.00 | 0.00 | 0.00 | 37 | 1008.9 |
| 20260506002206 | 24 | 143 | 3.2 | 3.2 | 0.00 | 0.00 | 0.00 | 36 | 1008.6 |
| 20260506001702 | 24 | 113 | 6.4 | 8.0 | 0.00 | 0.00 | 0.00 | 36 | 1008.6 |
| 20260506001159 | 25 | 150 | 6.4 | 4.8 | 0.00 | 0.00 | 0.00 | 36 | 1008.6 |
| 20260506000656 | 25 | 184 | 6.4 | 8.0 | 0.00 | 0.00 | 0.00 | 36 | 1008.5 |
| 20260506000154 | 25 | 152 | 4.8 | 8.0 | 0.00 | 0.00 | 0.00 | 36 | 1008.6 |
| 20260505235652 | 25 | 353 | 1.6 | 3.2 | 0.00 | 0.00 | 0.00 | 36 | 1008.6 |
| 20260505235149 | 25 | 213 | 3.2 | 4.8 | 0.00 | 0.00 | 0.00 | 36 | 1008.4 |
| 20260505234645 | 25 | 105 | 8.0 | 8.0 | 0.00 | 0.00 | 0.00 | 35 | 1008.7 |
| 20260505234142 | 25 | 245 | 4.8 | 8.0 | 0.00 | 0.00 | 0.00 | 35 | 1008.6 |
| 20260505233639 | 25 | 168 | 4.8 | 8.0 | 0.00 | 0.00 | 0.00 | 35 | 1008.3 |
| 20260505233137 | 25 | 173 | 3.2 | 3.2 | 0.00 | 0.00 | 0.00 | 35 | 1008.5 |
| 20260505232634 | 25 | 142 | 4.8 | 4.8 | 0.00 | 0.00 | 0.00 | 35 | 1008.6 |
| 20260505232131 | 25 | 166 | 8.0 | 8.0 | 0.00 | 0.00 | 0.00 | 34 | 1008.3 |
| 20260505231628 | 25 | 254 | 4.8 | 4.8 | 0.00 | 0.00 | 0.00 | 34 | 1008.4 |
| 20260505231127 | 25 | 134 | 9.7 | 11.3 | 0.00 | 0.00 | 0.00 | 35 | 1008.5 |
| 20260505230625 | 25 | 233 | 4.8 | 8.0 | 0.00 | 0.00 | 0.00 | 35 | 1008.2 |
| 20260505230120 | 25 | 139 | 9.7 | 11.3 | 0.00 | 0.00 | 0.00 | 34 | 1008.2 |
| 20260505225617 | 26 | 173 | 9.7 | 14.5 | 0.00 | 0.00 | 0.00 | 35 | 1008.1 |
| 20260505225113 | 26 | 173 | 8.0 | 11.3 | 0.00 | 0.00 | 0.00 | 34 | 1008.2 |
| 20260505224610 | 26 | 128 | 3.2 | 4.8 | 0.00 | 0.00 | 0.00 | 35 | 1008.2 |
| 20260505224108 | 26 | 89 | 3.2 | 3.2 | 0.00 | 0.00 | 0.00 | 34 | 1008.2 |
| 20260505223605 | 26 | 158 | 8.0 | 8.0 | 0.00 | 0.00 | 0.00 | 33 | 1008.4 |
| 20260505223101 | 26 | 134 | 8.0 | 11.3 | 0.00 | 0.00 | 0.00 | 33 | 1008.4 |
| 20260505222558 | 26 | 150 | 4.8 | 4.8 | 0.00 | 0.00 | 0.00 | 32 | 1008.2 |
| 20260505222054 | 26 | 192 | 6.4 | 4.8 | 0.00 | 0.00 | 0.00 | 32 | 1008.3 |
| 20260505221551 | 27 | 188 | 6.4 | 11.3 | 0.00 | 0.00 | 0.00 | 31 | 1008.3 |
| 20260505221047 | 27 | 158 | 6.4 | 8.0 | 0.00 | 0.00 | 0.00 | 31 | 1008.1 |
| 20260505220544 | 27 | 261 | 9.7 | 11.3 | 0.00 | 0.00 | 0.00 | 30 | 1008.2 |
| 20260505220042 | 26 | 159 | 9.7 | 14.5 | 0.00 | 0.00 | 0.00 | 32 | 1008.1 |
| 20260505215540 | 26 | 213 | 8.0 | 8.0 | 0.00 | 0.00 | 0.00 | 32 | 1007.9 |
| 20260505215037 | 26 | 106 | 4.8 | 4.8 | 0.00 | 0.00 | 0.00 | 33 | 1008.0 |
| 20260505214535 | 26 | 148 | 6.4 | 8.0 | 0.00 | 0.00 | 0.00 | 33 | 1007.9 |
| 20260505214032 | 26 | 258 | 8.0 | 11.3 | 0.00 | 0.00 | 0.00 | 32 | 1008.0 |
| 20260505213530 | 26 | 142 | 4.8 | 4.8 | 0.00 | 0.00 | 0.00 | 32 | 1008.1 |
| 20260505213026 | 26 | 136 | 6.4 | 8.0 | 0.00 | 0.00 | 0.00 | 31 | 1008.0 |
| 20260505212522 | 26 | 156 | 14.5 | 16.1 | 0.00 | 0.00 | 0.00 | 31 | 1007.8 |
| 20260505212020 | 26 | 130 | 11.3 | 14.5 | 0.00 | 0.00 | 0.00 | 30 | 1007.8 |
| 20260505211517 | 27 | 121 | 14.5 | 19.3 | 0.00 | 0.00 | 0.00 | 30 | 1008.0 |
| 20260505211013 | 27 | 163 | 6.4 | 8.0 | 0.00 | 0.00 | 0.00 | 33 | 1007.9 |
| 20260505210510 | 27 | 179 | 19.3 | 27.4 | 0.00 | 0.00 | 0.00 | 30 | 1007.7 |
| 20260505210007 | 27 | 193 | 11.3 | 16.1 | 0.00 | 0.00 | 0.00 | 30 | 1008.1 |
| 20260505205505 | 27 | 245 | 9.7 | 11.3 | 0.00 | 0.00 | 0.00 | 30 | 1008.2 |
| 20260505205002 | 27 | 146 | 14.5 | 16.1 | 0.00 | 0.00 | 0.00 | 29 | 1008.2 |
| 20260505204500 | 27 | 278 | 11.3 | 16.1 | 0.00 | 0.00 | 0.00 | 29 | 1007.8 |
| 20260505203957 | 27 | 189 | 11.3 | 14.5 | 0.00 | 0.00 | 0.00 | 31 | 1008.1 |
| 20260505203453 | 27 | 183 | 11.3 | 14.5 | 0.00 | 0.00 | 0.00 | 32 | 1008.0 |
| 20260505202950 | 27 | 163 | 16.1 | 19.3 | 0.00 | 0.00 | 0.00 | 30 | 1008.0 |
| 20260505202447 | 27 | 240 | 16.1 | 19.3 | 0.00 | 0.00 | 0.00 | 29 | 1008.1 |